Stations météo

réclame
Mon MeteoGroup
Plymouth, Grande-Bretagne (3827): Température de l'air & dewpoint: 11.01.2019 23:00:00 - 17.01.2019 23:00:00 (GMT)Plymouth, Grande-Bretagne (3827): Vitesse du vent & gusts: 11.01.2019 23:00:00 - 17.01.2019 23:00:00 (GMT)Plymouth, Grande-Bretagne (3827): Direction du vent: 11.01.2019 23:00:00 - 17.01.2019 23:00:00 (GMT)Plymouth, Grande-Bretagne (3827): reduced air pressure: 11.01.2019 23:00:00 - 17.01.2019 23:00:00 (GMT)Plymouth, Grande-Bretagne (3827): visibility: 11.01.2019 23:00:00 - 17.01.2019 23:00:00 (GMT)Plymouth, Grande-Bretagne (3827): Quantités de précipitations: 11.01.2019 23:00:00 - 17.01.2019 23:00:00 (GMT)
Date & Time tt [°C] td [°C] ff [km/h] ff [knt] fx [km/h] fx [knt] dd ppp [hPa] vv [km] rr [mm]
17.01.2019 23:00:00 1,9 -0,9 9 5 - - E 1019,5 17 0,0
17.01.2019 22:00:00 2,4 -0,6 9 5 - - E 1019,6 17 0,0
17.01.2019 21:00:00 2,2 -0,4 9 5 - - E 1019,9 13 0,0
17.01.2019 20:00:00 2,4 -0,4 8 4 - - ENE 1020,0 22 0,0
17.01.2019 19:00:00 3,1 -0,7 8 4 - - ENE 1019,6 18 0,0
17.01.2019 18:00:00 3,1 -0,8 4 2 - - E 1019,4 18 0,0
17.01.2019 17:00:00 4,3 -1,1 8 4 - - NNE 1019,0 18 0,0
17.01.2019 16:00:00 5,5 -0,8 8 4 - - N 1018,4 30 0,0
17.01.2019 15:00:00 6,5 -0,8 13 7 - - N 1017,8 24 0,0
17.01.2019 14:00:00 6,5 -1,0 22 12 - - NNW 1017,3 25 0,0
17.01.2019 13:00:00 6,8 0,0 16 9 - - N 1017,5 17 0,0
17.01.2019 12:00:00 7,4 1,3 13 7 - - N 1017,3 14 0,0
17.01.2019 11:00:00 6,3 1,5 13 7 - - N 1017,0 23 0,0
17.01.2019 10:00:00 4,9 1,5 9 5 - - NNW 1015,9 16 0,0
17.01.2019 09:00:00 4,2 2,7 11 6 - - NNW 1014,3 21 0,0
17.01.2019 08:00:00 3,8 2,7 8 4 - - W 1012,5 18 0,0
17.01.2019 07:00:00 4,1 2,9 9 5 - - NW 1011,6 35 0,0
17.01.2019 06:00:00 4,7 3,4 18 10 46 25 WNW 1010,6 9 0,8
17.01.2019 05:00:00 4,5 3,1 22 12 - - NW 1010,1 18 0,6
17.01.2019 04:00:00 5,1 2,4 18 10 - - WNW 1009,3 40 0,0
17.01.2019 03:00:00 5,4 1,9 26 14 - - NW 1008,8 30 0,0
17.01.2019 02:00:00 5,0 2,4 16 9 - - NW 1008,1 25 0,0
17.01.2019 01:00:00 5,3 3,3 13 7 - - NW 1007,6 30 0,0
17.01.2019 00:00:00 5,2 3,3 29 16 46 25 NW 1006,8 10 0,2
16.01.2019 23:00:00 6,3 3,9 21 11 - - WNW 1005,9 35 0,2
16.01.2019 22:00:00 6,3 4,5 28 15 - - W 1005,5 24 0,0
16.01.2019 21:00:00 6,8 5,4 29 16 48 26 WSW 1005,3 5 0,2
16.01.2019 20:00:00 6,3 4,4 34 18 46 25 WSW 1005,2 35 0,6
16.01.2019 19:00:00 6,9 4,3 18 10 - - WSW 1005,6 19 0,0
16.01.2019 18:00:00 6,8 4,2 24 13 - - W 1005,8 30 0,0
16.01.2019 17:00:00 6,9 4,7 16 9 - - W 1005,9 18 0,0
16.01.2019 16:00:00 7,6 5,1 22 12 - - W 1006,0 19 0,0
16.01.2019 15:00:00 7,9 5,8 15 8 - - W 1005,9 30 0,0
16.01.2019 14:00:00 7,8 6,1 15 8 - - NW 1005,8 26 0,2
16.01.2019 13:00:00 8,2 6,4 22 12 54 29 NW 1005,7 35 0,0
16.01.2019 12:00:00 9,9 9,1 29 16 48 26 WSW 1005,3 13 0,0
16.01.2019 11:00:00 10,0 9,1 28 15 - - SW 1006,1 11 0,0
16.01.2019 10:00:00 9,2 8,7 26 14 - - SW 1006,5 11 0,6
16.01.2019 09:00:00 9,5 9,0 28 15 - - SW 1007,1 12 0,0
16.01.2019 08:00:00 9,4 8,9 31 17 50 27 SW 1007,3 4,7 0,6
16.01.2019 07:00:00 9,9 8,8 39 21 48 26 SSW 1007,8 11 0,0
16.01.2019 06:00:00 9,7 9,0 31 17 48 26 SW 1008,6 10 0,0
16.01.2019 05:00:00 9,5 8,8 26 14 48 26 SW 1009,6 12 0,0
16.01.2019 04:00:00 9,1 8,6 34 18 46 25 SW 1010,4 4,0 0,0
16.01.2019 03:00:00 9,0 8,5 29 16 46 25 SW 1011,7 7 0,8
16.01.2019 02:00:00 9,2 8,1 34 18 46 25 SW 1012,4 9 0,0
16.01.2019 01:00:00 9,5 7,7 34 18 52 28 SW 1013,4 11 0,0
16.01.2019 00:00:00 9,6 7,9 35 19 50 27 SW 1014,4 12 0,0
15.01.2019 23:00:00 9,3 7,7 35 19 50 27 SW 1015,2 20 0,0
15.01.2019 22:00:00 8,9 8,1 34 18 46 25 SW 1016,1 3,5 0,4
15.01.2019 21:00:00 8,8 7,9 21 11 - - WSW 1016,7 2,8 0,0
15.01.2019 20:00:00 9,4 8,0 28 15 - - SW 1017,1 21 0,0
15.01.2019 19:00:00 9,5 7,6 26 14 - - SW 1017,7 30 0,0
15.01.2019 18:00:00 8,8 7,4 28 15 - - SW 1018,3 35 0,0
15.01.2019 17:00:00 8,6 7,5 22 12 - - SW 1018,8 45 0,0
15.01.2019 16:00:00 9,3 7,7 15 8 - - SW 1019,4 24 0,0
15.01.2019 15:00:00 9,2 5,9 18 10 - - WSW 1020,0 13 0,0
15.01.2019 14:00:00 9,3 7,5 15 8 - - WSW 1020,6 30 0,0
15.01.2019 13:00:00 9,4 7,8 24 13 - - SW 1021,3 35 0,0
15.01.2019 12:00:00 9,3 7,3 18 10 - - WSW 1022,1 50 0,0
15.01.2019 11:00:00 9,5 7,0 18 10 - - WSW 1022,8 40 0,0
15.01.2019 10:00:00 9,2 7,1 18 10 - - WSW 1023,1 30 0,0
15.01.2019 09:00:00 8,4 6,8 16 9 - - WSW 1023,1 28 0,0
15.01.2019 08:00:00 8,0 6,5 21 11 - - W 1023,2 23 0,0
15.01.2019 07:00:00 8,4 6,8 22 12 - - WSW 1023,3 29 0,0
15.01.2019 06:00:00 7,6 6,8 18 10 - - W 1023,5 19 0,0
15.01.2019 05:00:00 7,6 6,6 16 9 - - W 1023,9 3,8 0,0
15.01.2019 04:00:00 8,0 5,5 13 7 - - W 1024,3 15 0,0
15.01.2019 03:00:00 7,7 5,3 13 7 - - W 1024,9 20 0,0
15.01.2019 02:00:00 7,7 5,6 9 5 - - W 1025,2 11 0,0
15.01.2019 01:00:00 8,0 4,8 11 6 - - WNW 1025,5 20 0,0
15.01.2019 00:00:00 7,9 4,3 11 6 - - W 1025,7 23 0,0
14.01.2019 23:00:00 7,9 4,1 11 6 - - W 1026,1 21 0,0
14.01.2019 22:00:00 7,7 3,4 9 5 - - W 1026,0 17 0,0
14.01.2019 21:00:00 7,6 3,1 9 5 - - W 1026,1 27 0,0
14.01.2019 20:00:00 7,7 2,1 5 3 - - NW 1026,3 18 0,0
14.01.2019 19:00:00 8,0 1,9 11 6 - - NW 1026,3 20 0,0
14.01.2019 18:00:00 8,2 1,7 13 7 - - NNW 1026,1 22 0,0
14.01.2019 17:00:00 8,3 1,8 15 8 - - NW 1025,7 20 0,0
14.01.2019 16:00:00 8,5 2,3 13 7 - - NW 1025,7 30 0,0
14.01.2019 15:00:00 8,8 2,9 15 8 - - NW 1025,4 30 0,0
14.01.2019 14:00:00 8,9 2,4 21 11 - - NNW 1025,4 24 0,0
14.01.2019 13:00:00 9,1 2,7 16 9 - - NW 1025,4 15 0,0
14.01.2019 12:00:00 9,1 2,5 18 10 - - NNW 1025,4 28 0,0
14.01.2019 11:00:00 8,8 2,5 21 11 - - NNW 1025,1 24 0,0
14.01.2019 10:00:00 8,4 3,1 15 8 - - NW 1025,1 30 0,0
14.01.2019 09:00:00 7,4 3,4 13 7 - - NW 1024,8 14 0,0
14.01.2019 08:00:00 7,3 3,1 13 7 - - NW 1024,3 13 0,0
14.01.2019 07:00:00 8,0 2,9 18 10 - - NW 1023,4 15 0,0
14.01.2019 06:00:00 8,5 2,1 16 9 - - NNW 1023,3 25 0,0
14.01.2019 05:00:00 8,7 3,2 13 7 - - WNW 1023,0 15 0,0
14.01.2019 04:00:00 9,0 3,2 15 8 - - NW 1022,8 13 0,0
14.01.2019 03:00:00 9,1 2,6 18 10 - - NW 1022,4 15 0,0
14.01.2019 02:00:00 9,2 4,3 18 10 - - WNW 1022,0 12 0,0
14.01.2019 01:00:00 9,2 4,1 13 7 - - NW 1021,5 11 0,0
14.01.2019 00:00:00 9,9 5,2 26 14 - - NNW 1021,0 12 0,0
13.01.2019 23:00:00 10,1 6,7 22 12 - - NW 1020,6 7 0,0
13.01.2019 22:00:00 10,6 6,9 26 14 48 26 NW 1019,8 13 0,0
13.01.2019 21:00:00 10,9 7,2 29 16 52 28 NW 1019,1 26 0,0
13.01.2019 20:00:00 10,9 7,9 29 16 55 30 WNW 1018,9 26 0,0
13.01.2019 19:00:00 10,9 8,0 29 16 54 29 WNW 1018,6 20 0,0
13.01.2019 18:00:00 10,8 8,4 31 17 50 27 WNW 1018,8 11 0,0
13.01.2019 17:00:00 10,5 8,2 29 16 52 28 WNW 1018,8 11 0,0
13.01.2019 16:00:00 10,7 8,1 29 16 48 26 WNW 1018,9 12 0,0
13.01.2019 15:00:00 11,0 7,9 29 16 52 28 WNW 1019,1 10 0,0
13.01.2019 14:00:00 11,3 7,9 28 15 52 28 WNW 1019,3 14 0,0
13.01.2019 13:00:00 11,0 7,8 26 14 48 26 WNW 1020,5 13 0,0
13.01.2019 12:00:00 10,7 7,7 18 10 - - W 1021,6 19 0,0
13.01.2019 11:00:00 10,1 7,9 21 11 - - W 1022,2 16 0,0
13.01.2019 10:00:00 9,9 7,6 21 11 - - WNW 1022,6 16 0,0
13.01.2019 09:00:00 9,5 7,4 26 14 - - WNW 1023,0 22 0,0
13.01.2019 08:00:00 9,4 7,4 22 12 - - WNW 1023,0 18 0,0
13.01.2019 07:00:00 9,6 7,6 21 11 - - WNW 1023,5 22 0,0
13.01.2019 06:00:00 9,7 8,1 16 9 - - WNW 1023,6 12 0,0
13.01.2019 05:00:00 9,3 8,7 21 11 - - W 1023,8 22 0,0
13.01.2019 04:00:00 9,2 8,4 22 12 - - W 1024,1 13 0,0
13.01.2019 03:00:00 9,7 8,6 21 11 - - W 1024,9 20 0,0
13.01.2019 02:00:00 9,9 8,1 18 10 - - NNW 1025,1 28 0,0
13.01.2019 01:00:00 10,1 8,0 26 14 48 26 NNW 1025,4 22 0,0
13.01.2019 00:00:00 10,1 8,2 35 19 52 28 NW 1025,3 14 0,0
12.01.2019 23:00:00 10,0 8,1 18 10 - - NW 1026,1 14 0,0
12.01.2019 22:00:00 9,9 7,9 13 7 - - NW 1026,0 22 0,0
12.01.2019 21:00:00 10,1 8,0 22 12 - - NW 1026,6 23 0,0
12.01.2019 20:00:00 10,0 7,7 26 14 - - NW 1026,6 17 0,0
12.01.2019 19:00:00 9,6 7,6 26 14 50 27 NW 1026,5 28 0,0
12.01.2019 18:00:00 9,6 7,1 29 16 50 27 NW 1026,7 19 0,0
12.01.2019 17:00:00 9,5 6,6 31 17 46 25 NW 1026,1 30 0,0
12.01.2019 16:00:00 9,8 6,7 21 11 46 25 NW 1026,4 20 0,0
12.01.2019 15:00:00 10,1 6,8 24 13 50 27 NW 1026,6 23 0,0
12.01.2019 14:00:00 10,6 7,4 28 15 50 27 NW 1026,6 20 0,0
12.01.2019 13:00:00 10,3 8,7 22 12 - - WNW 1027,3 3,9 0,0
12.01.2019 12:00:00 10,1 8,8 24 13 - - W 1027,9 22 0,0
12.01.2019 11:00:00 9,9 8,7 26 14 - - WNW 1028,3 30 0,0
12.01.2019 10:00:00 9,4 8,7 24 13 - - W 1028,5 25 0,0
12.01.2019 09:00:00 9,3 8,5 22 12 - - W 1029,0 29 0,0
12.01.2019 08:00:00 9,1 8,1 22 12 - - WNW 1029,2 45 0,0
12.01.2019 07:00:00 8,7 8,1 21 11 - - W 1029,2 19 0,0
12.01.2019 06:00:00 8,4 7,9 21 11 - - W 1029,9 6 0,0
12.01.2019 05:00:00 8,3 7,7 13 7 - - W 1030,4 35 0,0
12.01.2019 04:00:00 8,3 7,5 18 10 - - W 1031,3 1,2 0,0
12.01.2019 03:00:00 8,3 7,3 16 9 - - W 1031,9 35 0,0
12.01.2019 02:00:00 8,6 6,8 11 6 - - W 1032,0 27 0,0
12.01.2019 01:00:00 8,6 7,0 11 6 - - W 1032,2 27 0,0
12.01.2019 00:00:00 8,6 6,6 11 6 - - W 1032,8 27 0,0
11.01.2019 23:00:00 8,6 5,2 18 10 - - W 1033,5 30 0,0

tt = Température de l'air
td = dewpoint
ff = Vitesse du vent
fx = gusts
dd = Direction du vent
ppp = reduced air pressure
vv = visibility
rr = Quantités de précipitations

stations d'obs. à proximité